Stations météo

réclame
Mon MeteoGroup
Alghero, Italie (16520): Température de l'air & dewpoint: 13.06.2018 20:00:00 - 19.06.2018 20:00:00 (CEST)Alghero, Italie (16520): Vitesse du vent: 13.06.2018 20:00:00 - 19.06.2018 20:00:00 (CEST)Alghero, Italie (16520): Direction du vent: 13.06.2018 20:00:00 - 19.06.2018 20:00:00 (CEST)Alghero, Italie (16520): reduced air pressure: 13.06.2018 20:00:00 - 19.06.2018 20:00:00 (CEST)Alghero, Italie (16520): visibility: 13.06.2018 20:00:00 - 19.06.2018 20:00:00 (CEST)Alghero, Italie (16520): Quantités de précipitations: 13.06.2018 20:00:00 - 19.06.2018 20:00:00 (CEST)
Date & Time tt [°C] td [°C] ff [km/h] ff [knt] dd ppp [hPa] vv [km] rr [mm]
19.06.2018 20:00:00 27,0 17,0 18 10 NNE - 10 -
19.06.2018 19:00:00 29,0 16,0 21 11 NNE - 10 -
19.06.2018 18:00:00 30,0 14,0 28 15 NNE - 10 -
19.06.2018 17:00:00 30,6 15,0 28 15 NNE 1016,7 10 0,0
19.06.2018 16:00:00 31,0 16,0 24 13 NNE - 10 -
19.06.2018 15:00:00 31,0 16,0 24 13 NE - 10 -
19.06.2018 14:00:00 30,9 15,8 18 10 NE 1017,3 10 -
19.06.2018 13:00:00 30,0 18,0 16 9 NE - 10 -
19.06.2018 12:00:00 30,0 16,0 21 11 NE - 10 -
19.06.2018 11:00:00 28,5 17,7 16 9 NE 1017,6 10 0,0
19.06.2018 10:00:00 26,0 18,0 13 7 NNE - 10 -
19.06.2018 09:00:00 23,0 21,0 9 5 NE - 10 -
19.06.2018 08:00:00 21,0 20,0 16 9 E - 9 -
19.06.2018 07:00:00 18,0 18,0 2 1 - - 6 -
19.06.2018 06:00:00 17,0 17,0 4 2 - - 7 -
19.06.2018 05:00:00 18,1 17,6 2 1 - 1016,9 25 0,0
19.06.2018 04:00:00 18,0 18,0 5 3 NNE - 10 -
19.06.2018 03:00:00 19,0 18,0 8 4 NNW - 10 -
19.06.2018 02:00:00 18,9 18,2 4 2 NNE 1017,1 25 -
19.06.2018 01:00:00 19,0 18,0 5 3 NE - 10 -
19.06.2018 00:00:00 20,0 18,0 5 3 NNE - 10 -
18.06.2018 23:00:00 20,3 18,0 8 4 N 1017,2 10 0,0
18.06.2018 22:00:00 21,0 17,0 9 5 NNE - 10 -
18.06.2018 21:00:00 22,0 17,0 5 3 NNE - 10 -
18.06.2018 20:00:00 23,1 17,4 5 3 WNW 1015,7 10 -
18.06.2018 19:00:00 24,0 17,0 11 6 WNW - 10 -
18.06.2018 18:00:00 25,0 17,0 13 7 SSW - 10 -
18.06.2018 17:00:00 24,7 16,5 15 8 SSW 1015,2 10 0,0
18.06.2018 16:00:00 25,0 16,0 16 9 S - 10 -
18.06.2018 15:00:00 25,0 16,0 15 8 S - 10 -
18.06.2018 14:00:00 25,4 16,0 15 8 S 1015,6 10 -
18.06.2018 13:00:00 24,0 16,0 16 9 S - 10 -
18.06.2018 12:00:00 24,0 16,0 18 10 S - 10 -
18.06.2018 11:00:00 23,5 16,6 13 7 S 1015,7 10 0,0
18.06.2018 10:00:00 23,0 17,0 9 5 WNW - 10 -
18.06.2018 09:00:00 22,0 17,0 8 4 W - 10 -
18.06.2018 08:00:00 21,2 17,1 4 2 - 1015,9 10 -
18.06.2018 07:00:00 19,0 17,0 4 2 SE - 10 -
18.06.2018 06:00:00 - - - - - - - -
18.06.2018 05:00:00 19,5 17,4 5 3 SSW 1015,6 10 0,0
18.06.2018 04:00:00 20,0 18,0 8 4 SSW - 10 -
18.06.2018 03:00:00 - - - - - - - -
18.06.2018 02:00:00 20,0 17,2 5 3 W 1016,7 10 -
18.06.2018 01:00:00 20,0 18,0 5 3 WSW - 10 -
18.06.2018 00:00:00 21,0 18,0 8 4 WSW - 10 -
17.06.2018 23:00:00 20,1 17,1 5 3 SSW 1017,0 10 0,0
17.06.2018 22:00:00 20,0 17,0 5 3 W - 10 -
17.06.2018 21:00:00 21,0 17,0 9 5 W - 10 -
17.06.2018 20:00:00 21,7 16,8 13 7 W 1016,5 10 -
17.06.2018 19:00:00 23,0 17,0 13 7 W - 10 -
17.06.2018 18:00:00 24,0 17,0 13 7 W - 10 -
17.06.2018 17:00:00 24,1 18,1 13 7 WNW 1016,3 10 0,0
17.06.2018 16:00:00 25,0 18,0 15 8 W - 10 -
17.06.2018 15:00:00 25,0 19,0 13 7 W - 10 -
17.06.2018 14:00:00 24,8 18,8 15 8 WNW 1016,5 10 -
17.06.2018 13:00:00 26,0 19,0 11 6 - - 10 -
17.06.2018 12:00:00 24,0 18,0 13 7 SSW - 10 -
17.06.2018 11:00:00 23,8 18,2 11 6 S 1015,9 10 0,0
17.06.2018 10:00:00 23,0 18,0 9 5 SSW - 10 -
17.06.2018 09:00:00 22,0 19,0 5 3 SW - 10 -
17.06.2018 08:00:00 19,1 17,1 2 1 - 1015,1 10 -
17.06.2018 07:00:00 17,0 16,0 2 1 - - 10 -
17.06.2018 06:00:00 16,0 15,0 4 2 - - 10 -
17.06.2018 05:00:00 17,3 16,6 4 2 - 1014,4 10 0,0
17.06.2018 04:00:00 19,0 18,0 2 1 - - 10 -
17.06.2018 03:00:00 18,0 18,0 4 2 - - 10 -
17.06.2018 02:00:00 18,1 17,0 5 3 S 1015,1 10 -
17.06.2018 01:00:00 17,0 16,0 8 4 SW - 10 -
17.06.2018 00:00:00 19,0 17,0 5 3 S - 10 -
16.06.2018 23:00:00 18,6 17,1 5 3 SW 1015,2 10 0,0
16.06.2018 22:00:00 19,0 17,0 5 3 SW - 10 -
16.06.2018 21:00:00 21,0 18,0 4 2 - - 10 -
16.06.2018 20:00:00 22,5 17,3 8 4 W 1014,3 10 -
16.06.2018 19:00:00 24,0 17,0 11 6 W - 10 -
16.06.2018 18:00:00 24,0 17,0 13 7 WNW - 10 -
16.06.2018 17:00:00 25,0 18,5 11 6 W 1013,8 10 0,0
16.06.2018 16:00:00 24,0 18,0 16 9 WNW - 10 -
16.06.2018 15:00:00 25,0 19,0 15 8 W - 10 -
16.06.2018 14:00:00 25,3 18,5 13 7 WSW 1013,9 10 -
16.06.2018 13:00:00 25,0 19,0 16 9 SSW - 10 -
16.06.2018 12:00:00 24,0 19,0 16 9 S - 10 -
16.06.2018 11:00:00 22,8 18,2 15 8 SSW 1013,9 10 0,0
16.06.2018 10:00:00 23,0 19,0 13 7 SW - 10 -
16.06.2018 09:00:00 21,0 18,0 13 7 SSW - 10 -
16.06.2018 08:00:00 18,7 17,1 2 1 - 1013,3 10 -
16.06.2018 07:00:00 15,0 15,0 2 1 NW - 9 -
16.06.2018 06:00:00 - - - - - - - -
16.06.2018 05:00:00 15,2 14,7 2 1 E 1013,0 20 0,0
16.06.2018 04:00:00 16,0 16,0 2 1 E - 10 -
16.06.2018 03:00:00 16,0 15,0 2 1 - - 10 -
16.06.2018 02:00:00 16,5 15,8 4 2 ESE 1013,4 20 -
16.06.2018 01:00:00 17,0 16,0 2 1 WSW - 10 -
16.06.2018 00:00:00 18,0 17,0 2 1 - - 10 -
15.06.2018 23:00:00 17,8 16,5 4 2 - 1013,4 10 0,0
15.06.2018 22:00:00 19,0 17,0 4 2 - - 10 -
15.06.2018 21:00:00 20,0 17,0 9 5 SW - 10 -
15.06.2018 20:00:00 21,3 17,0 16 9 SSW 1012,0 10 -
15.06.2018 19:00:00 23,0 17,0 13 7 SSW - 10 -
15.06.2018 18:00:00 24,0 17,0 16 9 SSW - 10 -
15.06.2018 17:00:00 23,9 16,9 18 10 SSW 1011,7 10 0,0
15.06.2018 16:00:00 24,0 16,0 11 6 WSW - 10 -
15.06.2018 15:00:00 24,0 17,0 15 8 W - 10 -
15.06.2018 14:00:00 24,2 16,3 13 7 W 1011,3 10 -
15.06.2018 13:00:00 25,0 17,0 13 7 W - 10 -
15.06.2018 12:00:00 25,0 17,0 13 7 WNW - 10 -
15.06.2018 11:00:00 24,3 18,9 9 5 S 1011,4 10 0,0
15.06.2018 10:00:00 23,0 19,0 11 6 S - 10 -
15.06.2018 09:00:00 21,0 19,0 5 3 SSW - 10 -
15.06.2018 08:00:00 19,0 18,1 4 2 - 1010,9 10 -
15.06.2018 07:00:00 16,0 16,0 2 1 - - 10 -
15.06.2018 06:00:00 15,0 15,0 0 0 N - 10 -
15.06.2018 05:00:00 16,0 16,0 4 2 WNW - 10 -
15.06.2018 04:00:00 16,0 16,0 2 1 - - 10 -
15.06.2018 03:00:00 17,0 17,0 2 1 - - 10 -
15.06.2018 02:00:00 17,3 16,7 2 1 - 1011,0 10 -
15.06.2018 01:00:00 18,0 17,0 2 1 - - 10 -
15.06.2018 00:00:00 18,0 17,0 5 3 WSW - 10 -
14.06.2018 23:00:00 18,9 17,4 2 1 - 1011,1 10 0,0
14.06.2018 22:00:00 20,0 18,0 4 2 - - 10 -
14.06.2018 21:00:00 21,0 18,0 8 4 WNW - 10 -
14.06.2018 20:00:00 22,6 17,8 8 4 NW 1009,6 10 -
14.06.2018 19:00:00 23,0 18,0 11 6 NNW - 10 -
14.06.2018 18:00:00 23,0 18,0 13 7 NNW - 10 -
14.06.2018 17:00:00 24,8 18,0 15 8 WNW 1009,1 10 0,0
14.06.2018 16:00:00 24,0 17,0 16 9 NW - 10 -
14.06.2018 15:00:00 25,0 18,0 16 9 WNW - 10 -
14.06.2018 14:00:00 23,9 18,6 15 8 WNW 1008,9 10 -
14.06.2018 13:00:00 24,0 18,0 13 7 WNW - 10 -
14.06.2018 12:00:00 24,0 19,0 15 8 W - 10 -
14.06.2018 11:00:00 23,5 18,3 9 5 W 1008,0 10 0,0
14.06.2018 10:00:00 22,0 18,0 8 4 WNW - 10 -
14.06.2018 09:00:00 22,0 19,0 9 5 WNW - 10 -
14.06.2018 08:00:00 20,0 18,0 5 3 NW - 10 -
14.06.2018 07:00:00 18,0 17,0 4 2 NW - 10 -
14.06.2018 06:00:00 18,0 17,0 5 3 NW - 10 -
14.06.2018 05:00:00 17,8 17,3 2 1 - 1006,4 10 0,0
14.06.2018 04:00:00 18,0 18,0 2 1 - - 10 -
14.06.2018 03:00:00 18,0 17,0 2 1 - - 10 -
14.06.2018 02:00:00 19,3 17,6 5 3 WNW 1007,0 10 -
14.06.2018 01:00:00 19,0 17,0 5 3 WSW - 10 -
14.06.2018 00:00:00 19,0 17,0 4 2 - - 10 -
13.06.2018 23:00:00 19,7 16,9 5 3 NW 1006,9 10 0,0
13.06.2018 22:00:00 20,0 16,0 13 7 WNW - 10 -
13.06.2018 21:00:00 20,0 16,0 18 10 WNW - 10 -
13.06.2018 20:00:00 20,3 15,8 21 11 NW 1006,5 10 -

tt = Température de l'air
td = dewpoint
ff = Vitesse du vent
dd = Direction du vent
ppp = reduced air pressure
vv = visibility
rr = Quantités de précipitations

stations d'obs. à proximité